Waarnemingen

Advertentie
Mijn weer
Gemini, Nederland (6214): temperatuur & dauwpunt: 15.01.2017 11:00:00 - 21.01.2017 11:00:00 (CET)Gemini, Nederland (6214): windsnelheid & windstoten: 15.01.2017 11:00:00 - 21.01.2017 11:00:00 (CET)Gemini, Nederland (6214): windrichting: 15.01.2017 11:00:00 - 21.01.2017 11:00:00 (CET)Gemini, Nederland (6214): luchtdruk: 15.01.2017 11:00:00 - 21.01.2017 11:00:00 (CET)Gemini, Nederland (6214): zicht: 15.01.2017 11:00:00 - 21.01.2017 11:00:00 (CET)
Datum & Tijd tt [°C] td [°C] ff [km/u] ff [kn] fx [km/u] fx [kn] dd ppp [hPa] vv [km]
21.01.2017 11:00:00 5,5 2,2 8 4 11 6 ZZW 1032,9 10
21.01.2017 10:00:00 5,4 2,2 11 6 18 10 Z 1032,9 10
21.01.2017 09:00:00 5,6 2,0 11 6 18 10 Z 1032,9 50
21.01.2017 08:00:00 5,7 1,9 11 6 18 10 ZZO 1032,7 10
21.01.2017 07:00:00 5,8 1,7 11 6 22 12 OZO 1032,7 50
21.01.2017 06:00:00 5,8 2,3 8 4 18 10 - 1033,0 10
21.01.2017 05:00:00 5,9 2,5 9 5 18 10 OZO 1033,2 10
21.01.2017 04:00:00 6,1 3,1 5 3 11 6 OZO 1033,5 10
21.01.2017 03:00:00 6,1 3,1 8 4 11 6 OZO 1033,7 10
21.01.2017 02:00:00 6,1 2,8 2 1 11 6 - 1033,8 10
21.01.2017 01:00:00 6,0 2,7 4 2 11 6 - 1034,2 10
21.01.2017 00:00:00 6,0 2,7 5 3 7 4 O 1034,5 10
20.01.2017 23:00:00 5,9 2,7 8 4 11 6 O 1034,7 10
20.01.2017 22:00:00 5,9 2,4 5 3 18 10 ONO 1034,9 10
20.01.2017 21:00:00 6,1 2,8 8 4 18 10 NNO 1034,8 10
20.01.2017 20:00:00 6,3 2,7 15 8 18 10 NO 1034,8 10
20.01.2017 19:00:00 6,4 2,4 5 3 18 10 NNO 1034,9 10
20.01.2017 18:00:00 6,2 2,5 9 5 14 8 N 1035,0 10
20.01.2017 17:00:00 5,8 2,6 13 7 14 8 N 1035,0 10
20.01.2017 16:00:00 6,1 3,3 11 6 14 8 N 1035,0 10
20.01.2017 15:00:00 5,7 4,7 8 4 11 6 N 1035,2 8
20.01.2017 14:00:00 5,7 4,3 13 7 14 8 N 1035,5 10
20.01.2017 13:00:00 6,3 4,4 8 4 11 6 W 1035,9 10
20.01.2017 12:00:00 6,4 4,4 8 4 11 6 W 1036,2 10
20.01.2017 11:00:00 6,2 4,2 8 4 14 8 NW 1036,4 10
20.01.2017 10:00:00 6,3 3,9 11 6 14 8 NW 1036,3 10
20.01.2017 09:00:00 6,5 3,0 9 5 14 8 NW 1036,0 10
20.01.2017 08:00:00 6,1 4,7 9 5 18 10 WNW 1035,8 10
20.01.2017 07:00:00 5,9 4,4 9 5 18 10 WNW 1035,9 10
20.01.2017 06:00:00 6,0 4,9 4 2 7 4 W 1036,0 10
20.01.2017 05:00:00 6,0 5,3 9 5 14 8 NNW 1036,3 7
20.01.2017 04:00:00 6,2 5,1 15 8 18 10 WNW 1036,4 5
20.01.2017 03:00:00 6,3 5,0 13 7 18 10 WNW 1036,5 10
20.01.2017 02:00:00 6,4 5,0 16 9 22 12 W 1036,7 10
20.01.2017 01:00:00 6,2 4,9 13 7 18 10 W 1036,9 8
20.01.2017 00:00:00 6,1 5,1 13 7 18 10 WZW 1037,2 5
19.01.2017 23:00:00 6,1 4,7 16 9 18 10 W 1037,3 10
19.01.2017 22:00:00 6,2 4,5 9 5 22 12 WZW 1037,3 10
19.01.2017 21:00:00 6,0 4,1 16 9 22 12 WZW 1037,3 10
19.01.2017 20:00:00 6,4 4,4 13 7 14 8 W 1037,1 10
19.01.2017 19:00:00 6,4 3,8 13 7 14 8 W 1036,9 10
19.01.2017 18:00:00 6,5 3,8 13 7 14 8 W 1036,9 10
19.01.2017 17:00:00 6,5 3,6 15 8 14 8 W 1036,9 10
19.01.2017 16:00:00 6,6 2,9 14 8 18 10 W 1036,9 50
19.01.2017 15:00:00 7,2 2,1 13 7 18 10 W 1037,0 10
19.01.2017 14:00:00 7,5 2,0 16 9 18 10 W 1037,4 10
19.01.2017 13:00:00 6,9 1,9 16 9 22 12 WNW 1037,6 10
19.01.2017 12:00:00 6,4 2,6 18 10 22 12 W 1038,1 10
19.01.2017 11:00:00 6,3 2,9 16 9 22 12 W 1038,3 10
19.01.2017 10:00:00 5,7 2,7 18 10 25 14 W 1038,3 10
19.01.2017 09:00:00 4,8 2,4 11 6 25 14 WZW 1038,1 12
19.01.2017 08:00:00 4,8 2,2 14 8 25 14 WZW 1037,8 11
19.01.2017 07:00:00 5,1 2,7 14 8 25 14 WZW 1037,5 10
19.01.2017 06:00:00 5,0 3,0 14 8 25 14 ZW 1037,3 9
19.01.2017 05:00:00 4,9 3,0 24 13 25 14 ZW 1038,0 7
19.01.2017 04:00:00 5,1 3,2 14 8 25 14 ZW 1038,1 7
19.01.2017 03:00:00 5,0 3,1 14 8 22 12 WZW 1037,9 7
19.01.2017 02:00:00 5,0 3,0 14 8 25 14 WZW 1038,0 8
19.01.2017 01:00:00 4,9 3,0 15 8 25 14 W 1038,0 8
19.01.2017 00:00:00 4,5 2,6 16 9 25 14 WZW 1038,2 7
18.01.2017 23:00:00 4,4 2,2 21 11 25 14 WZW 1038,1 8
18.01.2017 22:00:00 4,3 2,1 18 10 25 14 WZW 1038,4 8
18.01.2017 21:00:00 4,2 2,1 18 10 25 14 WZW 1038,5 9
18.01.2017 20:00:00 3,9 1,8 21 11 25 14 ZW 1038,5 9
18.01.2017 19:00:00 4,1 1,2 21 11 29 16 WZW 1038,6 10
18.01.2017 18:00:00 4,6 1,6 18 10 29 16 WZW 1038,6 10
18.01.2017 17:00:00 4,3 1,3 18 10 29 16 WZW 1038,5 10
18.01.2017 16:00:00 4,0 0,5 21 11 29 16 WZW 1038,7 10
18.01.2017 15:00:00 3,3 -0,3 24 13 32 18 WZW 1038,8 10
18.01.2017 14:00:00 2,8 -0,7 31 17 32 18 ZW 1039,1 10
18.01.2017 13:00:00 3,0 -0,8 28 15 29 16 ZW 1039,6 10
18.01.2017 12:00:00 3,5 -1,5 28 15 29 16 ZW 1039,7 10
18.01.2017 11:00:00 3,0 -1,6 28 15 29 16 WZW 1039,7 10
18.01.2017 10:00:00 3,1 -3,8 31 17 32 18 ZW 1039,3 10
18.01.2017 09:00:00 3,0 -4,5 24 13 29 16 ZW 1039,0 10
18.01.2017 08:00:00 3,2 -6,0 24 13 29 16 ZW 1038,5 10
18.01.2017 07:00:00 3,1 -4,4 24 13 29 16 ZW 1038,3 10
18.01.2017 06:00:00 3,0 -3,3 24 13 32 18 ZW 1038,6 10
18.01.2017 05:00:00 3,2 -3,7 26 14 32 18 ZW 1038,8 10
18.01.2017 04:00:00 3,0 -2,7 26 14 29 16 ZW 1038,7 10
18.01.2017 03:00:00 2,7 -1,2 22 12 29 16 ZW 1039,1 10
18.01.2017 02:00:00 2,8 0,0 21 11 29 16 ZW 1039,1 9
18.01.2017 01:00:00 2,6 -0,7 22 12 29 16 ZW 1039,2 10
18.01.2017 00:00:00 2,7 -1,5 21 11 25 14 ZW 1039,2 10
17.01.2017 23:00:00 2,6 -1,1 18 10 25 14 ZW 1039,2 10
17.01.2017 22:00:00 2,7 -1,3 21 11 25 14 ZW 1038,9 10
17.01.2017 21:00:00 2,9 -1,5 16 9 22 12 ZW 1038,9 10
17.01.2017 20:00:00 2,6 -1,5 18 10 22 12 ZW 1038,8 10
17.01.2017 19:00:00 2,7 -1,5 16 9 22 12 ZW 1038,5 10
17.01.2017 18:00:00 2,8 -2,0 16 9 22 12 ZW 1038,2 10
17.01.2017 17:00:00 2,7 -4,1 16 9 22 12 ZW 1038,2 10
17.01.2017 16:00:00 2,6 -3,9 16 9 22 12 ZW 1038,2 10
17.01.2017 15:00:00 2,4 -3,2 21 11 25 14 ZW 1038,0 10
17.01.2017 14:00:00 2,8 -4,1 18 10 22 12 ZW 1038,1 10
17.01.2017 13:00:00 2,8 -4,3 18 10 22 12 ZW 1038,2 10
17.01.2017 12:00:00 3,1 -3,9 16 9 22 12 ZZW 1038,1 10
17.01.2017 11:00:00 3,1 -2,1 13 7 18 10 ZW 1037,7 10
17.01.2017 10:00:00 3,3 -3,3 16 9 22 12 ZZW 1037,3 10
17.01.2017 09:00:00 3,3 -4,4 13 7 14 8 ZZW 1036,9 10
17.01.2017 08:00:00 3,4 -3,7 8 4 14 8 ZZW 1036,2 10
17.01.2017 07:00:00 3,3 -4,5 4 2 - - ZW 1036,0 10
17.01.2017 06:00:00 3,3 -4,5 8 4 11 6 ZW 1035,6 10
17.01.2017 05:00:00 3,2 -4,4 5 3 11 6 Z 1035,3 10
17.01.2017 04:00:00 3,2 -4,6 5 3 - - Z 1035,3 10
17.01.2017 03:00:00 3,2 -4,5 8 4 11 6 Z 1035,0 10
17.01.2017 02:00:00 3,1 -5,0 5 3 14 8 - 1034,3 10
17.01.2017 01:00:00 3,1 -4,7 8 4 11 6 ZZO 1034,3 10
17.01.2017 00:00:00 3,0 -4,7 5 3 14 8 O 1034,2 10
16.01.2017 23:00:00 3,1 -4,0 8 4 14 8 O 1033,8 10
16.01.2017 22:00:00 3,1 -4,0 8 4 14 8 OZO 1033,3 10
16.01.2017 21:00:00 3,1 -4,6 8 4 14 8 - 1032,8 10
16.01.2017 20:00:00 3,0 -4,4 9 5 14 8 - 1032,0 10
16.01.2017 19:00:00 3,0 -5,0 9 5 14 8 - 1031,5 10
16.01.2017 18:00:00 2,9 -4,4 11 6 14 8 - 1031,0 10
16.01.2017 17:00:00 2,9 -5,0 9 5 14 8 O 1030,5 10
16.01.2017 16:00:00 3,3 -4,8 9 5 14 8 O 1030,1 10
16.01.2017 15:00:00 3,5 -4,6 9 5 14 8 - 1029,6 10
16.01.2017 14:00:00 3,7 -4,5 9 5 14 8 OZO 1029,3 10
16.01.2017 13:00:00 3,5 -3,5 9 5 14 8 - 1029,1 10
16.01.2017 12:00:00 3,5 -3,5 11 6 18 10 OZO 1028,9 10
16.01.2017 11:00:00 3,6 -3,4 11 6 18 10 OZO 1028,6 10
16.01.2017 10:00:00 3,4 -4,4 13 7 25 14 OZO 1028,0 10
16.01.2017 09:00:00 2,9 -4,9 16 9 22 12 OZO 1027,5 10
16.01.2017 08:00:00 2,9 -5,7 15 8 22 12 - 1026,8 10
16.01.2017 07:00:00 2,9 -4,4 13 7 22 12 O 1026,2 10
16.01.2017 06:00:00 3,1 -5,2 15 8 22 12 - 1025,9 10
16.01.2017 05:00:00 3,4 -5,1 15 8 22 12 O 1025,2 10
16.01.2017 04:00:00 3,4 -3,8 18 10 25 14 - 1024,9 10
16.01.2017 03:00:00 3,7 -4,5 18 10 25 14 O 1024,6 10
16.01.2017 02:00:00 3,8 -3,0 15 8 25 14 O 1024,2 10
16.01.2017 01:00:00 2,7 -0,7 13 7 22 12 OZO 1024,1 10
16.01.2017 00:00:00 3,4 -1,5 4 2 11 6 - 1023,7 10
15.01.2017 23:00:00 2,3 -0,9 37 20 40 21 NNO 1023,2 3,8
15.01.2017 22:00:00 3,9 -0,1 13 7 22 12 N 1022,9 10
15.01.2017 21:00:00 3,6 0,0 13 7 29 16 N 1022,5 10
15.01.2017 20:00:00 3,5 0,4 13 7 25 14 NNW 1022,0 10
15.01.2017 19:00:00 4,0 0,1 11 6 14 8 ONO 1021,6 10
15.01.2017 18:00:00 4,2 -0,8 13 7 36 19 ONO 1021,0 10
15.01.2017 17:00:00 5,1 -3,0 15 8 25 14 NNO 1020,3 10
15.01.2017 16:00:00 4,9 -0,6 8 4 11 6 N 1019,9 10
15.01.2017 15:00:00 4,0 -0,9 9 5 40 21 ONO 1019,7 10
15.01.2017 14:00:00 5,8 -1,8 15 8 22 12 N 1019,3 10
15.01.2017 13:00:00 4,6 0,3 8 4 25 14 NO 1019,1 10
15.01.2017 12:00:00 5,0 -0,2 26 14 29 16 N 1018,9 10
15.01.2017 11:00:00 5,0 -1,4 29 16 29 16 N 1018,6 10

tt = temperatuur
td = dauwpunt
ff = windsnelheid
fx = windstoten
dd = windrichting
ppp = luchtdruk
vv = zicht

Weerstations in de omgeving